Location: Haliburton Scout Reserve
(45.0900°N, 78.3200°W)
Time: 01:22:50
(UTC-05:00)

Vanguard 1 Rocket - All Passes

Search period start: 06 February 2023 00:00
Search period end: 16 February 2023 00:00
Orbit: 651 x 4224 km, 34.3° (Epoch: 05 February)

Date Brightness Start Highest point End Pass type
(mag) Time Alt. Az. Time Alt. Az. Time Alt. Az.
06 Feb - 11:24:03 10° SW 11:31:52 38° SSE 11:45:53 10° E daylight
06 Feb - 13:46:59 10° WSW 13:58:14 56° S 14:19:11 10° ESE daylight
06 Feb - 16:12:08 10° W 16:27:12 48° SSW 16:50:30 10° SE daylight
06 Feb - 18:40:54 10° W 18:56:33 27° SW 19:15:19 10° S visible
07 Feb - 10:14:58 10° S 10:20:56 24° SE 10:30:17 10° E daylight
07 Feb - 12:36:28 10° WSW 12:45:46 51° SSE 13:03:29 10° E daylight
07 Feb - 15:00:37 10° W 15:13:35 53° S 15:36:02 10° ESE daylight
07 Feb - 17:27:17 10° W 17:42:55 35° SSW 18:04:11 10° SSE visible
07 Feb - 20:03:46 10° WSW 20:11:22 12° SW 20:19:25 10° SSW visible
08 Feb - 09:08:00 10° SSE 09:10:33 12° SE 09:13:34 10° ESE daylight
08 Feb - 11:26:25 10° SW 11:34:02 41° SSE 11:47:58 10° E daylight
08 Feb - 13:49:38 10° WSW 14:00:31 54° S 14:20:49 10° ESE daylight
08 Feb - 16:14:55 10° W 16:29:14 42° SSW 16:51:21 10° SE daylight
08 Feb - 18:44:50 10° W 18:58:13 21° SW 19:14:10 10° S visible
09 Feb - 10:17:00 10° SSW 10:23:00 28° SE 10:32:45 10° E daylight
09 Feb - 12:39:04 10° WSW 12:48:05 51° S 13:05:20 10° ESE daylight
09 Feb - 15:03:22 10° W 15:15:48 48° SSW 15:37:15 10° SE daylight
09 Feb - 17:30:30 10° W 17:44:47 29° SW 18:04:04 10° SSE visible
10 Feb - 09:08:49 10° S 09:12:31 15° SE 09:17:20 10° ESE daylight
10 Feb - 11:28:55 10° SW 11:36:18 43° SSE 11:50:01 10° E daylight
10 Feb - 13:52:21 10° WSW 14:02:51 51° S 14:22:20 10° ESE daylight
10 Feb - 16:17:52 10° W 16:31:18 37° SSW 16:51:51 10° SSE daylight
10 Feb - 18:49:58 10° WSW 18:59:59 15° SW 19:11:32 10° SSW visible
11 Feb - 10:19:15 10° SSW 10:25:11 31° SSE 10:35:06 10° E daylight
11 Feb - 12:41:46 10° WSW 12:50:27 50° S 13:07:06 10° ESE daylight
11 Feb - 15:06:12 10° W 15:18:02 43° SSW 15:38:13 10° SE daylight
11 Feb - 17:34:09 10° W 17:46:44 23° SW 18:03:16 10° S visible
12 Feb - 09:10:25 10° S 09:14:35 19° SE 09:20:22 10° ESE daylight
12 Feb - 11:31:32 10° WSW 11:38:41 45° SSE 11:52:01 10° ESE daylight
12 Feb - 13:55:08 10° W 14:05:12 47° S 14:23:43 10° SE daylight
12 Feb - 16:21:03 10° W 16:33:25 30° SSW 16:51:55 10° SSE daylight
13 Feb - 10:21:40 10° SW 10:27:28 34° SSE 10:37:23 10° E daylight
13 Feb - 12:44:30 10° WSW 12:52:53 48° S 13:08:48 10° ESE daylight
13 Feb - 15:09:09 10° W 15:20:19 37° SSW 15:38:54 10° SE daylight
13 Feb - 17:38:40 10° WSW 17:48:44 17° SW 18:01:22 10° S visible
14 Feb - 09:12:24 10° SSW 09:16:47 22° SSE 09:23:07 10° E daylight
14 Feb - 11:34:12 10° WSW 11:41:07 45° S 11:53:59 10° ESE daylight
14 Feb - 13:57:59 10° W 14:07:36 42° SSW 14:24:53 10° SE daylight
14 Feb - 16:24:34 10° WSW 16:35:36 24° SSW 16:51:25 10° SSE daylight
15 Feb - 08:05:07 10° SSE 08:06:24 11° SE 08:07:50 10° SE daylight
15 Feb - 10:24:12 10° SW 10:29:53 36° SSE 10:39:36 10° ESE daylight
15 Feb - 12:47:17 10° WSW 12:55:21 44° S 13:10:22 10° ESE daylight
15 Feb - 15:12:18 10° W 15:22:39 31° SSW 15:39:13 10° SSE daylight
15 Feb - 17:45:35 10° WSW 17:50:51 12° SW 17:56:47 10° SSW daylight
